sat.trackr.live / text

‹ back to catalog

SORCE

NORAD 27651 · 2003-004A

PAYLOAD ACTIVE UNKNOWN

§ Identity

Operator
Country
US
Launch date
2003-01-25
Launch site
ERAS
Launch vehicle
Mass (kg)
RCS (m²)
1.78

Purposes: science

External: N2YO · Heavens-Above · Gunter

§ Orbital elements

Epoch: 2026-09-19T21:33:45.152064Z

Period
95.74 min
Inclination
39.9905°
Eccentricity
0.0017282
Mean motion
15.04128225 rev/d
Perigee alt
542.2 km
Apogee alt
566.2 km
Semi-major
6,932.3 km
B*
1.3758e-4
RAAN
81.1263°
Arg perigee
7.5846°
Mean anomaly
352.5207°
Rev number
28,616

§ Raw data

SORCE1 27651U 03004A   26262.89843926  .00001793  00000+0  13758-3 0  99912 27651  39.9905  81.1263 0017282   7.5846 352.5207 15.04128225286166

JSON: /api/v1/satellites/27651 · /tle

For live sub-satellite position, see the globe view (requires WebGL).

§ Visibility from observer

Set your observer location to see the next 7 days of passes ≥ 10°. The values pass through the URL so the page stays shareable.

No JS? Fill the form by hand. The geolocation button needs JavaScript.